Mitchell, SD

6:42 PM CST on December 12, 2019 (GMT -0600)
Mitchell Municipal

Weather History for KMHE - June, 2019

Change the Weather History Date:

Monday, June 3, 2019

  Actual Average Record
Temperature  
Mean Temperature 71 °F 65 °F  
Max Temperature 80 °F 76 °F 100 °F (1933)
Min Temperature 61 °F 54 °F 35 °F (1998)
Degree Days  
Heating Degree Days 0 3  
Month to date heating degree days 4 9  
Since 1 June heating degree days 4 9  
Since 1 July heating degree days 7983 7219  
Cooling Degree Days 6 3  
Month to date cooling degree days 6 8  
Year to date cooling degree days 25 48  
Since 1 June cooling degree days 6 8  
Growing Degree Days 20 (Base 50)    
Moisture  
Dew Point 57 °F    
Average Humidity 66    
Maximum Humidity 79    
Minimum Humidity 52    
Precipitation  
Precipitation 0.00 in 0.15 in 1.71 in (1940)
Month to date precipitation 0.01 0.44  
Year to date precipitation 11.85 7.17  
Snow  
Snow 0.00 in - 0.00 in ()
Month to date snowfall 0.0  
Since 1 June snowfall 0.0  
Since 1 July snowfall 67.6  
Snow Depth 0.00 in    
Sea Level Pressure  
Sea Level Pressure 29.85 in    
Wind  
Wind Speed 12 mph (SSE)    
Max Wind Speed 22 mph    
Max Gust Speed 33 mph    
Visibility 10 miles    
Events      
T = Trace of Precipitation, MM = Missing Value Source: NWS Daily Summary

Daily Weather History Graph

Daily Weather History Graph

Search for Another Location

Airport or City:

Astronomy

Jun. 03, 2019 Rise Set
Actual Time 5:52 AM CDT 9:08 PM CDT
Civil Twilight 5:16 AM CDT 9:44 PM CDT
Nautical Twilight 4:31 AM CDT 10:30 PM CDT
Astronomical Twilight 3:35 AM CDT 11:26 PM CDT
Moon 6:16 AM CDT (6/3) 9:34 PM CDT (6/3)
Length of Visible Light 16h 27m
Length of Day
15h 16m
New Moon, 0% of the Moon is Illuminated
Jun 3
New Moon
Jun 10
First Quarter
Jun 17
Full
Jun 25
Last Quarter
Jul 2
New

Hourly Weather History & Observations

Time (CDT) Temp. Dew Point Humidity Pressure Visibility Wind Dir Wind Speed Gust Speed Precip Events Conditions
12:53 AM 66.0 °F 48.9 °F 54% 29.90 in 10.0 mi SSE 11.5 mph - N/A   Clear
1:53 AM 64.9 °F 48.0 °F 54% 29.90 in 10.0 mi SSE 13.8 mph - N/A   Clear
2:53 AM 64.0 °F 46.9 °F 54% 29.88 in 10.0 mi SSE 11.5 mph - N/A   Clear
3:53 AM 63.0 °F 46.9 °F 56% 29.89 in 10.0 mi SSE 12.7 mph - N/A   Clear
4:53 AM 62.1 °F 48.0 °F 60% 29.89 in 10.0 mi SE 11.5 mph - N/A   Partly Cloudy
5:53 AM 61.0 °F 48.9 °F 64% 29.88 in 10.0 mi SE 6.9 mph - N/A   Scattered Clouds
6:53 AM 62.1 °F 48.9 °F 62% 29.90 in 10.0 mi SSE 8.1 mph - N/A   Mostly Cloudy
7:53 AM 62.1 °F 52.0 °F 70% 29.91 in 10.0 mi SE 4.6 mph - N/A   Mostly Cloudy
8:53 AM 64.0 °F 52.0 °F 65% 29.92 in 10.0 mi South 12.7 mph - N/A   Overcast
9:53 AM 66.9 °F 55.9 °F 68% 29.92 in 10.0 mi South 12.7 mph - N/A   Mostly Cloudy
10:53 AM 73.0 °F 59.0 °F 61% 29.90 in 10.0 mi South 8.1 mph 18.4 mph N/A   Clear
11:53 AM 75.9 °F 60.1 °F 58% 29.88 in 10.0 mi South 11.5 mph 21.9 mph N/A   Clear
12:53 PM 77.0 °F 61.0 °F 58% 29.87 in 10.0 mi South 16.1 mph 23.0 mph N/A   Clear
1:53 PM 77.0 °F 63.0 °F 62% 29.85 in 10.0 mi SSE 15.0 mph 26.5 mph N/A   Partly Cloudy
2:53 PM 79.0 °F 63.0 °F 58% 29.83 in 10.0 mi South 12.7 mph 19.6 mph N/A   Clear
3:53 PM 79.0 °F 63.0 °F 58% 29.83 in 10.0 mi South 11.5 mph 21.9 mph N/A   Clear
4:53 PM 79.0 °F 63.0 °F 58% 29.81 in 10.0 mi South 10.4 mph - N/A   Partly Cloudy
5:53 PM 79.0 °F 62.1 °F 56% 29.81 in 10.0 mi South 11.5 mph - N/A   Clear
6:53 PM 79.0 °F 64.0 °F 60% 29.78 in 10.0 mi South 10.4 mph - N/A   Clear
7:53 PM 77.0 °F 64.0 °F 64% 29.78 in 10.0 mi South 13.8 mph - N/A   Clear
8:53 PM 73.9 °F 63.0 °F 68% 29.78 in 10.0 mi SSE 12.7 mph - N/A   Clear
9:53 PM 73.0 °F 63.0 °F 71% 29.78 in 10.0 mi SSE 13.8 mph - N/A   Clear
10:53 PM 71.1 °F 64.0 °F 78% 29.80 in 10.0 mi SSE 16.1 mph - N/A   Clear
11:53 PM 69.1 °F 63.0 °F 81% 29.78 in 10.0 mi SSE 12.7 mph - N/A   Clear